[[{"header":{"parameterUnit":"m.s-1","parameterCategory":1,"la1":30.2991,"la2":30.254,"lo1":-89.0895,"lo2":-89.0444,"dy":0.0017,"dx":0.0017,"nx":28,"ny":28,"refTime":"2026-03-05T09:00:00:Z","depth":0,"parameterNumber":2,"parameterNumberName":"U-component_of_WINDS"},"data":[0,0,0,0,0,0,0,0,0,0,0,0,0,0,0,0,0,0,0,0,0,0,0,0,0,0,0,0,0,0,0,0,0,0,0,0,0,0,0,0,0,0,0,0,0,0,0,0,0,0,0,0,0,0,0,0,0,0,-4.0219,-4.0219,0,-4.0282,-4.0283,-4.0283,-4.0236,-4.0234,-4.0232,-4.023,-4.0295,-4.0298,-4.0302,0,0,0,0,0,0,0,0,0,0,0,0,0,-4.0059,-4.0062,-4.0219,-4.0219,-4.022,-4.0282,-4.0283,-4.0284,-4.0237,-4.0234,-4.0232,-4.0229,-4.0294,-4.0298,-4.0302,0,0,0,0,0,0,0,0,0,0,0,0,0,-4.0126,-4.0063,-4.0219,-4.0204,-4.0204,-4.0282,-4.0283,-4.0284,-4.0237,-4.0234,-4.0231,-4.0228,-4.0292,-4.0297,-4.0303,-4.0398,0,0,-4.032,-4.0322,0,0,0,0,0,0,0,0,-4.0122,-4.0132,-4.0206,-4.0205,-4.0205,-4.0248,-4.025,-4.0322,-4.0238,-4.0224,-4.023,-4.0227,-4.0282,-4.0288,-4.0306,-4.0401,-4.0404,-4.032,-4.0323,-4.0326,-4.0327,0,0,0,0,0,0,0,-4.0117,-4.0129,-4.0244,-4.0207,-4.0206,-4.0195,-4.0201,-4.0264,-4.027,-4.0225,-4.0222,-4.023,-4.0281,-4.0301,-4.0308,-4.0405,-4.032,-4.0325,-4.0328,-4.033,-4.0584,-4.0587,0,0,0,0,0,0,-4.0114,-4.0125,-4.0242,-4.0246,-4.0155,-4.0201,-4.0207,-4.0237,-4.0269,-4.0271,-4.0233,-4.0228,-4.0294,-4.0301,-4.031,-4.0424,-4.0326,-4.0331,-4.0334,-4.058,-4.0584,-4.0588,0,0,0,0,0,0,-4.0111,-4.0125,-4.0239,-4.0185,-4.0198,-4.0207,-4.0241,-4.024,-4.026,-4.0274,-4.0275,-4.0252,-4.0291,-4.0302,-4.0377,-4.0426,-4.0333,-4.0338,-4.0576,-4.0582,-4.0586,-4.0653,0,0,0,0,0,0,-4.0106,-4.0124,-4.016,-4.0186,-4.0201,-4.0305,-4.0244,-4.0244,-4.027,-4.0264,-4.0293,-4.0295,-4.029,-4.0369,-4.0383,-4.0431,-4.0342,-4.0572,-4.0579,-4.0585,-4.0647,-4.066,-4.0671,0,0,0,0,0,-4.0101,-4.0175,-4.0162,-4.0176,-4.0246,-4.0308,-4.0317,-4.0309,-4.0274,-4.031,-4.032,-4.0294,-4.0419,-4.0377,-4.0392,-4.0443,-4.0569,-4.0577,-4.0584,-4.0641,-4.0657,-4.0671,0,0,0,0,0,0,-4.0154,-4.0178,-4.0163,-4.0249,-4.0277,-4.03,-4.0345,-4.0327,-4.0365,-4.0358,-4.0347,-4.0354,-4.0433,-4.0446,-4.0399,-4.0538,-4.0488,-4.0499,-4.0526,-4.0542,-4.0554,-4.0548,-4.0347,0,0,0,0,0,-4.0176,-4.0223,-4.0243,-4.0316,-4.0331,-4.0336,-4.0362,-4.0355,-4.0383,-4.0395,-4.0409,-4.0438,-4.0484,-4.0514,-4.0557,-4.065,-4.0655,-4.0692,-4.0705,-4.0715,-4.0724,-4.0775,-4.0791,-4.0614,-4.0614,-4.0614,0,0,-4.022,-4.024,-4.027,-4.0327,-4.0348,-4.0398,-4.0346,-4.0401,-4.0438,-4.0403,-4.0474,-4.0487,-4.0519,-4.0603,-4.0641,-4.0616,-4.0775,-4.0725,-4.0733,-4.0736,-4.0784,-4.0801,-4.0816,-4.0619,-4.0618,-4.0617,0,0,-4.0327,-4.0347,-4.0411,-4.0434,-4.0466,-4.047,-4.0485,-4.0512,-4.0519,-4.0591,-4.0567,-4.0612,-4.069,-4.0714,-4.0737,-4.0858,-4.0835,-4.0872,-4.0936,-4.0986,-4.1,-4.1012,-4.1055,-4.107,-4.0882,-4.0882,-4.0882,0,-4.0379,-4.0453,-4.0446,-4.0503,-4.0529,-4.0502,-4.0567,-4.0589,-4.0634,-4.0653,-4.0625,-4.0725,-4.0744,-4.0834,-4.0864,-4.0884,-4.0901,-4.0867,-4.0998,-4.1011,-4.1022,-4.1063,-4.1079,-4.0886,-4.0885,-4.0885,-4.0885,0,-4.0515,-4.0567,-4.0615,-4.066,-4.0692,-4.0753,-4.0755,-4.0789,-4.078,-4.0787,-4.0862,-4.0885,-4.0932,-4.0954,-4.0945,-4.1044,-4.1027,-4.1,-4.0948,-4.1043,-4.1081,-4.1097,-4.0892,-4.089,-4.0889,-4.0888,0,0,-4.0653,-4.0696,-4.0713,-4.0734,-4.077,-4.081,-4.0872,-4.0919,-4.0948,-4.0981,-4.1032,-4.1101,-4.1076,-4.1102,-4.1096,-4.1141,-4.1235,-4.1107,-4.1108,-4.1129,-4.1346,-4.1365,-4.1383,-4.1222,-4.1225,-4.1227,-4.1343,0,-4.0761,-4.0866,-4.0863,-4.0961,-4.101,-4.0987,-4.104,-4.1069,-4.1078,-4.1121,-4.1131,-4.118,-4.1144,-4.116,-4.1203,-4.1214,-4.1278,-4.1206,-4.1269,-4.1271,-4.1259,-4.1403,-4.1423,-4.153,-4.1357,-4.136,-4.1362,0,-4.09,-4.0939,-4.1042,-4.1073,-4.1093,-4.1141,-4.1185,-4.1227,-4.126,-4.1264,-4.1294,-4.1283,-4.1345,-4.1295,-4.1382,-4.1334,-4.136,-4.137,-4.1374,-4.1378,-4.132,-4.1409,-4.1564,-4.158,-4.1385,-4.1383,-4.1382,0,-4.0989,-4.1068,-4.114,-4.1159,-4.1197,-4.1231,-4.1248,-4.1278,-4.1308,-4.1347,-4.1366,-4.1413,-4.1438,-4.1474,-4.1476,-4.1439,-4.1564,-4.1514,-4.1569,-4.1569,-4.1593,-4.1591,-4.1754,-4.1614,-4.1614,-4.1613,-4.1613,0,-4.1109,-4.1173,-4.1181,-4.1225,-4.1297,-4.1294,-4.1366,-4.138,-4.1407,-4.1455,-4.1438,-4.1483,-4.1483,-4.153,-4.1532,-4.1604,-4.1615,-4.162,-4.162,-4.1621,-4.162,-4.1635,-4.1627,-4.1618,-4.1617,-4.1616,-4.1615,0,-4.1219,-4.1227,-4.1304,-4.1335,-4.1345,-4.1396,-4.1422,-4.1465,-4.1475,-4.1535,-4.1549,-4.1563,-4.1617,-4.1623,-4.1686,-4.1688,-4.1774,-4.1766,-4.1763,-4.1761,-4.1815,-4.1809,-4.1991,-4.2015,-4.1862,-4.1863,-4.1864,0,-4.1293,-4.1342,-4.1379,-4.141,-4.143,-4.1479,-4.151,-4.1511,-4.1543,-4.1586,-4.1624,-4.1677,-4.1718,-4.1806,-4.1822,-4.1871,-4.1863,-4.1924,-4.187,-4.187,-4.1863,-4.1859,-4.1864,-4.1933,-4.1935,-4.1936,-4.1937,0,-4.1425,-4.1427,-4.1472,-4.1519,-4.1556,-4.1593,-4.1628,-4.1654,-4.166,-4.1698,-4.1753,-4.1786,-4.1851,-4.1903,-4.1952,-4.1971,-4.1955,-4.1955,-4.197,-4.197,-4.1965,-4.1968,-4.1789,-4.195,-4.1949,-4.1948,-4.1947,-4.1946,-4.1519,-4.1561,-4.1595,-4.1645,-4.1672,-4.1706,-4.1748,-4.1764,-4.181,-4.1863,-4.1862,-4.1923,-4.1957,-4.202,-4.2043,-4.2091,-4.2071,-4.2093,-4.2099,-4.2103,-4.2109,-4.196,-4.2101,-4.21,-4.21,-4.21,-4.2099,0,-4.1648,-4.1669,-4.1716,-4.1766,-4.1807,-4.1791,-4.183,-4.1864,-4.1918,-4.1952,-4.1994,-4.2059,-4.2111,-4.2133,-4.2184,-4.2218,-4.2213,-4.2232,-4.2228,-4.2233,-4.2124,-4.2105,-4.2235,-4.2235,-4.2235,-4.2235,-4.2235,-4.2235,-4.172,-4.1792,-4.1799,-4.1885,-4.1906,-4.1965,-4.1989,-4.202,-4.2047,-4.212,-4.2163,-4.2178,-4.2207,-4.2261,-4.2308,-4.2314,-4.2333,-4.2355,-4.2357,-4.2254,-4.224,-4.2227,-4.2209,-4.2359,-4.2359,-4.2461,-4.2462,-4.2463]},{"header":{"parameterUnit":"m.s-1","parameterCategory":1,"la1":30.2991,"la2":30.254,"lo1":-89.0895,"lo2":-89.0444,"dy":0.0017,"dx":0.0017,"nx":28,"ny":28,"refTime":"2026-03-05T09:00:00:Z","depth":0,"parameterNumber":3,"parameterNumberName":"V-component_of_WINDS"},"data":[0,0,0,0,0,0,0,0,0,0,0,0,0,0,0,0,0,0,0,0,0,0,0,0,0,0,0,0,0,0,0,0,0,0,0,0,0,0,0,0,0,0,0,0,0,0,0,0,0,0,0,0,0,0,0,0,0,0,1.1861,1.1861,0,1.1906,1.1906,1.1907,1.1932,1.1932,1.1932,1.1932,1.1977,1.1978,1.1979,0,0,0,0,0,0,0,0,0,0,0,0,0,1.1798,1.1799,1.1861,1.1861,1.1862,1.1906,1.1906,1.1907,1.1932,1.1932,1.1932,1.1932,1.1977,1.1978,1.1979,0,0,0,0,0,0,0,0,0,0,0,0,0,1.1832,1.1799,1.1861,1.188,1.1882,1.1906,1.1906,1.1907,1.1932,1.1932,1.1932,1.1932,1.1976,1.1978,1.198,1.1987,0,0,1.1985,1.1985,0,0,0,0,0,0,0,0,1.183,1.1835,1.1876,1.1878,1.1881,1.1913,1.1901,1.1934,1.1932,1.1913,1.1932,1.1932,1.1956,1.1959,1.1967,1.199,1.1991,1.1985,1.1986,1.1987,1.1987,0,0,0,0,0,0,0,1.1828,1.1833,1.1879,1.1877,1.188,1.1887,1.1892,1.1907,1.1933,1.1915,1.1916,1.1922,1.1957,1.1966,1.1968,1.1992,1.1985,1.1986,1.1987,1.1988,1.2027,1.2027,0,0,0,0,0,0,1.1822,1.1831,1.1877,1.188,1.1855,1.1888,1.1893,1.1903,1.1933,1.1938,1.1921,1.1923,1.1963,1.1966,1.197,1.1984,1.1987,1.1988,1.1989,1.2027,1.2027,1.2027,0,0,0,0,0,0,1.1821,1.1826,1.1875,1.1856,1.1863,1.1889,1.1899,1.1904,1.1912,1.1938,1.1943,1.1925,1.1963,1.1968,1.1984,1.1985,1.1989,1.199,1.2027,1.2027,1.2027,1.2009,0,0,0,0,0,0,1.1819,1.1826,1.1828,1.1856,1.1864,1.1888,1.1899,1.1904,1.1915,1.1917,1.1943,1.1947,1.1963,1.1981,1.1986,1.1988,1.1992,1.2027,1.2027,1.2027,1.201,1.2009,1.2008,0,0,0,0,0,1.1817,1.182,1.1828,1.1834,1.1867,1.1888,1.1892,1.1911,1.1915,1.1919,1.1936,1.1947,1.1985,1.1983,1.1988,1.199,1.2027,1.2027,1.2027,1.201,1.2009,1.2008,0,0,0,0,0,0,1.1791,1.1824,1.1833,1.1846,1.1864,1.1892,1.1896,1.1908,1.1925,1.1926,1.1948,1.1954,1.1968,1.1981,1.1978,1.2002,1.2007,1.2008,1.1993,1.1992,1.199,1.1987,1.1993,0,0,0,0,0,1.1787,1.1801,1.1829,1.1837,1.1846,1.187,1.1879,1.1893,1.1912,1.1919,1.1938,1.1956,1.1973,1.1983,1.1999,1.2012,1.2019,1.2017,1.2016,1.2015,1.2015,1.2026,1.2026,1.2027,1.2027,1.2027,0,0,1.1778,1.1798,1.1805,1.1833,1.1848,1.1863,1.1876,1.189,1.1901,1.1921,1.1938,1.1953,1.1975,1.1991,1.1998,1.2001,1.2017,1.2015,1.2014,1.2015,1.2026,1.2026,1.2026,1.2028,1.2028,1.2028,0,0,1.177,1.1786,1.1796,1.1812,1.1836,1.1853,1.1855,1.1883,1.1893,1.1911,1.1928,1.1942,1.1969,1.1985,1.1996,1.1999,1.201,1.2004,1.1998,1.2008,1.2008,1.2008,1.2011,1.2011,1.2004,1.2004,1.2004,0,1.1756,1.1778,1.1799,1.1814,1.1826,1.1847,1.1859,1.1873,1.1901,1.191,1.1913,1.1951,1.1967,1.1988,1.1989,1.1997,1.2002,1.2,1.2006,1.2007,1.2007,1.201,1.201,1.2003,1.2004,1.2004,1.2004,0,1.1761,1.1776,1.1782,1.181,1.1823,1.1836,1.186,1.1871,1.1884,1.1901,1.192,1.1941,1.1963,1.1969,1.1981,1.1993,1.1995,1.2002,1.2008,1.2006,1.2009,1.201,1.2002,1.2003,1.2003,1.2003,0,0,1.1735,1.1778,1.1779,1.1794,1.1824,1.1837,1.1851,1.1874,1.1884,1.1904,1.1918,1.1942,1.1951,1.1964,1.1978,1.1987,1.1991,1.1994,1.1995,1.1994,1.2007,1.2002,1.2002,1.1999,1.1999,1.1999,1.2006,0,1.1732,1.1759,1.1781,1.18,1.1816,1.1838,1.1852,1.1872,1.1889,1.1905,1.1924,1.1941,1.195,1.1959,1.1968,1.1988,1.1994,1.1988,1.2012,1.2013,1.2006,1.2004,1.1997,1.2002,1.2007,1.2007,1.2007,0,1.1731,1.1752,1.1773,1.1805,1.1812,1.1824,1.1849,1.1864,1.1888,1.19,1.1917,1.1933,1.1951,1.1956,1.1982,1.1978,1.199,1.2001,1.2002,1.2005,1.201,1.2007,1.2004,1.2005,1.2009,1.2009,1.2009,0,1.1712,1.1745,1.1763,1.1775,1.1811,1.1819,1.1835,1.186,1.1874,1.1896,1.1905,1.1928,1.1941,1.1959,1.1982,1.1983,1.2006,1.2012,1.2017,1.2017,1.2021,1.202,1.202,1.2027,1.2027,1.2027,1.2027,0,1.1706,1.1719,1.1756,1.1766,1.1782,1.1808,1.1823,1.1841,1.1863,1.1879,1.19,1.1914,1.1943,1.1961,1.1979,1.1999,1.2004,1.2015,1.2019,1.2013,1.2012,1.2021,1.2021,1.2028,1.2028,1.2027,1.2027,0,1.1686,1.1711,1.1733,1.1767,1.1777,1.1787,1.1817,1.1829,1.1848,1.1868,1.1874,1.1904,1.1927,1.1952,1.1983,1.1995,1.2015,1.2021,1.2007,1.2009,1.2013,1.2013,1.2019,1.2022,1.2027,1.2027,1.2026,0,1.1681,1.1692,1.1728,1.1741,1.1757,1.1776,1.1791,1.1818,1.1833,1.1864,1.1873,1.1898,1.1919,1.1955,1.198,1.2005,1.2012,1.2013,1.2016,1.201,1.2014,1.2013,1.2015,1.2011,1.2011,1.2011,1.2011,0,1.167,1.1683,1.1703,1.173,1.1747,1.1769,1.1791,1.18,1.1832,1.1848,1.1872,1.1889,1.1922,1.1947,1.1976,1.1993,1.2008,1.201,1.2013,1.2007,1.1998,1.2004,1.2004,1.201,1.201,1.201,1.201,1.201,1.1658,1.167,1.1698,1.1722,1.1742,1.1763,1.1778,1.18,1.1821,1.1851,1.1866,1.1891,1.1918,1.1958,1.1975,1.1996,1.2,1.2003,1.2005,1.2005,1.2004,1.1995,1.2001,1.2001,1.2001,1.2001,1.2001,0,1.1649,1.1669,1.1691,1.1723,1.1742,1.1756,1.1782,1.1797,1.1819,1.1844,1.1866,1.1896,1.1921,1.1949,1.1977,1.1988,1.1996,1.1995,1.1994,1.1998,1.1998,1.1994,1.1988,1.1988,1.1988,1.1988,1.1988,1.1988,1.1646,1.1668,1.1685,1.1717,1.1738,1.1763,1.1777,1.1798,1.1819,1.1851,1.1873,1.1892,1.1919,1.1949,1.1974,1.1982,1.1991,1.1988,1.1998,1.1997,1.1998,1.1999,1.1995,1.199,1.199,1.1997,1.1997,1.1997]}]]